Regional Weather Roundup
Issued by NWS Pendleton, OR

Home | Current Version | Previous Version | Text Only | Print | Product List | Glossary On
Versions: 1 2 3 4 5 6 7 8 9 10 11 12 13 14 15 16 17 18 19 20 21 22 23 24 25 26 27 28 29 30 31 32 33 34 35 36 37 38 39 40 41 42 43 44 45 46 47 48 49 50
719
ASUS46 KPDT 240110
RWRPDT
PENDLETON REGIONAL WEATHER ROUNDUP
NATIONAL WEATHER SERVICE PENDLETON OREGON
600 PM PDT FRI JUN 23 2017

NOTE: FAIR INDICATES FEW OR NO CLOUDS BELOW 12,000 FEET WITH NO
SIGNIFICANT WEATHER AND/OR OBSTRUCTIONS TO VISIBILITY.

# INDICATES UNOFFICIAL STATION AND DATA

WAZ520-240210-
EAST SLOPES OF WASHINGTON CASCADES

CITY            SKY/WX      TMP DP  RH  WIND    PRES   REMARKS
#BULLFROG       N/A         84  40  21  E1      N/A
#CLE ELUM HS    N/A         81  36  20  SE2     30.09F
#CLE ELUM LAKE  N/A         81  42  25  SW1     30.16F
#EASTON DOT     N/A         82  37  20  N5      N/A
#ELK HTS DOT    N/A         82  82  100 NE3     N/A
#GLENWOOD       N/A         82  47  29  S1      30.08F
#NELSON 3SW     N/A         78  42  28  CALM    30.29F
#NILE           N/A         81  41  24  NE1     29.36F
#TEANAWAY 4NE   N/A         83  47  28  E1      N/A
#TROUT LAKE 1NE N/A         82  44  26  S3      30.07F
#TROUT LAKE 1E  N/A         83  42  24  CALM    30.17F
$$

WAZ521-240210-
SIMCOE HIGHLANDS

CITY            SKY/WX      TMP DP  RH  WIND    PRES   REMARKS
#BICKLETON HS   N/A         76  41  28  E7      29.86F
#SATUS PASS DOT N/A         78  30  17  SW3     N/A
#CENTERVILLE 1SWN/A         81  44  27  SE10    30.05F
#GOLDENDALE 1NE N/A         82  24  12  SE12    N/A
#GOLDENDALE 4W  N/A         84  24  11  S2      30.16F
#GOODNOE HILLS  N/A         85  42  22  E10     N/A
#LYLE 6NE       N/A         84  44  25  E3      30.04F
#PITT 4SE       N/A         79  40  25  CALM    30.10F
$$

WAZ026-240210-
KITTITAS VALLEY

CITY            SKY/WX      TMP DP  RH  WIND    PRES   REMARKS
ELLENSBURG AP   PTCLDY      87  35  16  SE3     30.15F
#ELLENSBURG CWU N/A         87  38  18  CALM    30.02F
#ELLENSBURG 3NE N/A         83  42  24  CALM    28.21F
#KITTITAS 3S    N/A         83  39  21  CALM    30.07F
#MANASTASH RDG  N/A         83  83  100 N3      N/A
#ROCKY CYN DOT  N/A         82  43  25  E5      N/A
#RYEGRASS DOT   N/A         79  40  25  NE13    N/A
#THORP 6N       N/A         81  37  21  SW1     30.11F
$$

WAZ027-240210-
YAKIMA VALLEY

CITY            SKY/WX      TMP DP  RH  WIND    PRES   REMARKS
SUNNYSIDE AP    SUNNY       82  46  28  W6      30.11F
YAKIMA AIRPORT  SUNNY       87  40  19  VRB3    30.12F
YAKIMA-VAGABOND SUNNY       85  38  19  SW6     30.11F
#DONALD 2NE     N/A         90  26  10  SE3     28.97F HX 86
#GRANDVIEW      N/A         84  36  18  CALM    30.09F
#MABTON         N/A         85  45  25  CALM    30.10F
#MOXEE 2E       N/A         84  N/A N/A SW2     29.98F
#NACHES 2SW     N/A         86  48  27  SE1     30.23S
#OUTLOOK DOT    N/A         85  38  19  CALM    30.09F
#PARKER DOT     N/A         87  36  16  N3      30.13F
#TERRACE HTS    N/A         84  43  24  S2      30.05F
#TOPPENISH      N/A         85  43  23  S1      30.00F
#I82 S UMTANUM RN/A         83  44  25  SE6     N/A
#UNION GAP DOT  N/A         85  39  20  SW2     30.15F
#W YAKIMA       N/A         84  42  23  S2      30.08F
#WHITE SWAN 5E  N/A         85  44  24  CALM    30.09F
#WILEY CITY 3W  N/A         87  26  11  CALM    30.11F
#ZILLAH DOT     N/A         87  38  18  SW3     N/A
$$

WAZ028-240210-
LOWER COLUMBIA BASIN...WASHINGTON

CITY            SKY/WX      TMP DP  RH  WIND    PRES   REMARKS
PASCO           SUNNY       88  42  20  N5      30.09F
PROSSER AWOS    N/A         84  41  22  E9      30.13F
RICHLAND AWOS   SUNNY       90  35  14  NW3     30.09F HX 86
#BENTON CITY    N/A         83  36  19  CALM    29.98F
#CONNELL 5N     N/A         87  42  21  CALM    30.09S
#CONNELL 5NW    N/A         82  50  33  CALM    30.03F
#ELTOPIA 6NW    N/A         86  52  31  CALM    29.08F
#KAHLOTUS       N/A         84  37  19  CALM    30.07F
#KENNEWICK 3S   N/A         84  45  26  CALM    30.09F
#PATERSON       N/A         84  47  28  E5      30.06F
#PROSSER DOT    N/A         87  32  14  E5      30.12F
#SAGEMOOR 2W    N/A         84  46  27  NW5     29.95F
#TOUCHET 2S     N/A         87  54  32  CALM    30.04F
#WEST PASCO     N/A         88  46  23  N1      30.09S
$$

WAZ029-240210-
FOOTHILLS OF THE BLUES...WASHINGTON

CITY            SKY/WX      TMP DP  RH  WIND    PRES   REMARKS
WALLA WALLA AP  PTCLDY      87  35  16  N12     30.11F
#CLYDE 6NW      N/A         84  36  18  E5      30.07S
#DELANEY DOT    N/A         86  28  12  NW3     30.13F
#LOWDEN 2SE     N/A         87  42  21  NE1     30.04F
#PLEASANT VIEW 1N/A         83  34  17  NW1     30.11F
#PRESCOTT       N/A         85  41  21  E5      30.06F
#WHITMAN COLLEGEN/A         85  41  21  NW9     30.11F
#WAITSBURG 5S   N/A         81  45  28  N5      30.17F
#WAITSBURG 6SSE N/A         80  42  26  N6      30.10F
#WAITSBURG 8N   N/A         84  N/A N/A NW6     30.15S
#WALLA WALLA 5E N/A         81  47  30  N6      N/A
#WHITMAN MISSIONN/A         88  47  24  CALM    30.07F
$$

WAZ030-240210-
BLUE MOUNTAINS...WASHINGTON

CITY            SKY/WX      TMP DP  RH  WIND    PRES   REMARKS
#DIXIE 5SE      N/A         74  38  27  NE10    30.12F
$$

ORZ009-041-WAZ024-240210-
COLUMBIA RIVER GORGE

CITY            SKY/WX      TMP DP  RH  WIND    PRES   REMARKS
HOOD RIVER AP   PTCLDY      86  41  21  E7      30.09F
THE DALLES AP   PTCLDY      92  37  15  E5      30.06F HX 88
#ARLINGTON AIRPON/A         84  39  20  E9      30.08F
#CELILO DOT     N/A         94  48  21  NE6     N/A    HX 91
#LYLE           N/A         89  40  18  S6      30.06F
#MARYHILL       N/A         87  35  16  N12     N/A
#RUFUS DOT      N/A         87  N/A N/A SE12    N/A
#SMITHVILLE     N/A         89  42  19  E5      29.99F

$$

ORZ510-240210-
NORTH CENTRAL OREGON

CITY            SKY/WX      TMP DP  RH  WIND    PRES   REMARKS
#ANTELOPE       N/A         79  39  24  N7      29.91F
#CHENOWITH 1W   N/A         51  35  54  NW14    N/A
#COW CYN RST AREN/A         80  30  16  N8      N/A
#DUFUR          N/A         83  38  20  NE6     30.05F
#DUFUR 9E       N/A         78  34  20  E14     30.12F
#GRASS VALLEY 1SN/A         80  37  21  NE5     30.18F
#MAUPIN SCHOOL  N/A         86  43  22  NE3     30.13F
#MORO SCHOOL    N/A         82  45  27  NE1     30.23S
#SHANIKO 5WSW   N/A         78  35  21  N14     N/A
#SHANIKO 4NW    N/A         76  31  19  NE13    30.23R
#TYGH VALLEY 2NEN/A         86  38  18  N7      30.05F
#WAPANITIA AIRPON/A         83  36  19  NE6     30.08F
#WASCO DOT      N/A         85  41  21  E8      N/A
#WASCO 5NE      N/A         84  43  24  E7      30.08F
$$

ORZ511-240210-
CENTRAL OREGON

CITY            SKY/WX      TMP DP  RH  WIND    PRES   REMARKS
BEND AIRPORT    SUNNY       N/A N/A N/A N9      30.18F
MADRAS AIRPORT  SUNNY       82  30  15  N15     30.15F
PRINEVILLE AP   SUNNY       84  30  14  NW13    30.15F
REDMOND AIRPORT SUNNY       85  25  11  N15     30.15F
#ASHWOOD SCHOOL N/A         83  34  17  NE3     30.09F
#BEND 1SW       N/A         78  33  19  NW3     N/A
#BEND-AWBREY    N/A         85  38  19  NW2     30.03F
#BEND-KIM LN    N/A         84  33  16  N5      29.98F
#CULVER         N/A         82  41  23  N5      29.96F
#CULVER 8W      N/A         84  26  12  CALM    30.15S
#LAKE BILLY CHINN/A         82  N/A N/A NW10    30.07F
#MADRAS 4S      N/A         83  25  12  NW13    N/A
#POWELL BUTTE   N/A         83  25  12  N6      30.10F
#PRINEVILLE     N/A         86  35  16  CALM    30.09F
#PRINEVILLE 3N  N/A         84  40  21  NW14    30.00F
#WARM SPRINGS   N/A         87  40  19  CALM    29.91F

$$


ORZ509-240210-
EAST SLOPES OF OREGON CASCADES

CITY            SKY/WX      TMP DP  RH  WIND    PRES   REMARKS
SISTERS AWOS    N/A         81  28  14  S2      30.13F
#BLUE BOX PASS  N/A         78  N/A N/A N8      N/A
#CAMP SHERMAN   N/A         85  32  15  N1      30.14S
#LA PINE 4NW    N/A         81  41  24  CALM    30.05S
#LAVA BUTTE DOT N/A         80  35  20  NE5     N/A
#SISTERS ODOT   N/A         37  -9  13  SE2     N/A
#SISTERS 3N     N/A         81  32  17  E3      30.14S
#SUNRIVER       N/A         81  33  18  N2      30.05S
#TUMALO 3W      N/A         81  32  17  N6      29.91F
#WANOGA BUTTE D N/A         69  25  19  NE9     N/A

$$

ORZ044-240210-
LOWER COLUMBIA BASIN...OREGON

CITY            SKY/WX      TMP DP  RH  WIND    PRES   REMARKS
HERMISTON       SUNNY       90  33  13  VRB7    30.09F HX 86
#BOARDMAN SCHOOLN/A         86  39  19  N6      30.07F
#ECHO 8SW       N/A         86  45  24  CALM    30.10F
#I-84 EX 198 DOTN/A         84  48  29  E8      N/A
#IONE SCHOOL    N/A         84  33  16  N3      30.09S
#UMATILLA       N/A         89  40  18  N3      29.99F
$$

ORZ507-240210-
NORTHERN FOOTHILLS OF THE BLUES

CITY            SKY/WX      TMP DP  RH  WIND    PRES   REMARKS
PENDLETON AIRPT PTCLDY      84  33  16  N12     30.12F
#ADAMS 3WNW     N/A         82  43  25  N5      30.07F
#ATHENA         N/A         82  38  21  E3      30.11F
#CAYUSE         N/A         82  43  25  N6      30.06F
#HELIX SCHOOL   N/A         81  36  20  N8      30.08F
#HELIX 3N       N/A         81  36  20  N12     30.11F
#HOLDMAN 5SE    N/A         84  34  17  NE2     30.10F
#HOLDMAN 6E     N/A         84  36  18  N7      29.88F
#M-F GROVE ELEM N/A         84  36  18  N5      30.08F
#M-FREEWATER 5SEN/A         84  46  27  N5      30.10F
#PENDLETON DNTN N/A         85  43  23  E2      30.07F
#PDT AQUATIC CTRN/A         87  41  20  N5      30.11S
#PDT SUNRIDGE   N/A         85  41  21  CALM    30.11F
#PENDLETON 7NW  N/A         83  45  26  E2      N/A
#PILOT ROCK 1S  N/A         81  41  24  N6      30.14S
#PILOT ROCK     N/A         83  41  23  CALM    30.15S
#TUTUILLA       N/A         84  43  24  N1      30.15F
#UMAPINE 2E     N/A         86  45  24  N3      30.06F
#WESTON SCHOOL  N/A         80  34  19  SE7     30.01S

$$

ORZ508-240210-
SOUTHERN FOOTHILLS OF THE BLUES

CITY            SKY/WX      TMP DP  RH  WIND    PRES   REMARKS
LEXINGTON       SUNNY       84  32  15  NE8     30.16F
#AJAX           N/A         79  33  19  S7      30.29F
#HEPPNER EOC    N/A         82  39  22  NE9     30.01F
#HEPPNER 4NE    N/A         77  40  26  N3      30.09F
#LEXINGTON 2SE  N/A         85  41  21  NE7     30.09F
#MIKKALO        N/A         83  32  16  N6      30.26S
#OLEX 4N        N/A         82  31  16  NE8     30.10F
#RUGGS 5NE      N/A         82  18   9  E8      30.36S
#RUGGS 2SW      N/A         79  36  21  NE7     30.10S

$$

ORZ502-503-240210-
BLUE MOUNTAINS

CITY            SKY/WX      TMP DP  RH  WIND    PRES   REMARKS
MEACHAM         PTCLDY      74  31  20  CALM    30.23F
#BATTLE MTN DOT N/A         70  39  32  N2      N/A
#CUTSFORTH PARK N/A          0  -78  1  CALM    30.01S
#GRANITE        N/A         83  23  11  NE2     30.13S
#GREENHORN 9SW  N/A         77  43  30  W3      30.15F
#HARDMAN 10S    N/A         74  35  24  N5      30.19F
#HEPPNER 15SE   N/A         72  37  28  CALM    30.13S
#LADD CYN SMT   N/A         77  38  24  N12     N/A
#LADD CREEK ODOTN/A         79  41  26  NE12    N/A
#LONG CREEK HS  N/A         77  39  25  CALM    N/A
#N POWDER DOT   N/A         76  40  27  N13     N/A
#PIKES PEAK     N/A         71  39  31  N3      27.99S
#SUMMERVILLE 5NWN/A         79  44  29  N3      30.15S
#TOLLGATE       N/A         65  38  37  E2      30.11S
#TROY SCHOOL    N/A         83  42  24  CALM    29.92F
#UKIAH          N/A         74  42  32  N7      30.03F
#WESTON 4E      N/A         74  41  30  N2      30.05F
$$

ORZ505-240210-
JOHN DAY BASIN

CITY            SKY/WX      TMP DP  RH  WIND    PRES   REMARKS
JOHN DAY        SUNNY       83  31  15  CALM    30.17F
#JOHN DAY KJDY  N/A         86  N/A N/A W7      30.41R
#ANTELOPE 9ESE  N/A         86  36  17  N9      N/A
#DAYVILLE SCHOOLN/A         86  25  11  W6      30.07S
#MITCHELL       N/A         85  45  25  CALM    30.29S
#MITCHELL 8NW   N/A         82  33  17  NW2     30.05S
#MONUMENT HS    N/A         88  35  15  E5      30.04S
#MT. VERNON 5SE N/A         81  31  16  W3      30.14S
#SPRAY SCHOOL   N/A         85  N/A N/A CALM    N/A
$$

ORZ506-240210-
OCHOCO AND JOHN DAY HIGHLANDS

CITY            SKY/WX      TMP DP  RH  WIND    PRES   REMARKS
#HORSE RIDGE DO N/A         80  23  12  NW12    N/A
#PAULINA ODOT   N/A         85  22  10  N2      N/A
#PINE MTN OBS   N/A         70  30  22  N5      N/A
#SENECA         N/A         81  N/A N/A N3      N/A
#SENECA 9NW     N/A         79  36  21  CALM    30.06S
$$

ORZ049-240210-
GRANDE RONDE VALLEY

CITY            SKY/WX      TMP DP  RH  WIND    PRES   REMARKS
LA GRANDE       PTCLDY      81  36  20  N12     30.15F
#COVE           N/A         80  47  31  NW5     30.17F
#COVE SCHOOL    N/A         80  41  25  CALM    30.15F
#COVE 6NW       N/A         80  35  20  VRB7    30.07F
#ELGIN 3N       N/A         82  35  18  N1      30.12F
#ELGIN 1E       N/A         83  41  23  CALM    N/A
#IMBLER SCHOOL  N/A         79  36  21  CALM    30.11S
#ISLAND CITY 4N N/A         89  53  29  N3      30.03F
#LA GRANDE-LEFFEN/A         82  40  22  NE9     30.14F
#UNION 1S       N/A         81  36  20  W2      30.06F
$$

ORZ050-240210-
WALLOWA COUNTY

CITY            SKY/WX      TMP DP  RH  WIND    PRES   REMARKS
JOSEPH AIRPORT  PTCLDY      75  30  19  E3      30.24F
#ENTERPRISE HS  N/A         76  41  28  S1      29.98F
#IMNAHA SCHOOL  N/A         80  31  17  W2      30.11S
#IMNAHA 10S     N/A         80  39  23  CALM    30.14S
#JOSEPH         N/A         74  32  21  CALM    30.19F
#JOSEPH 3N      N/A         74  37  26  NE2     30.23F
#JOSEPH 3W      N/A         76  43  31  CALM    30.07F
#LOSTINE        N/A         77  41  28  CALM    29.89F
#LOSTINE 3SE    N/A         77  36  23  N2      30.24S
#MT HOWARD 8000 N/A         54  31  41  NW3     30.45S
#PROMISE 1S     N/A         72  38  29  N2      30.22F
#WALLOWA LAKE   N/A         66  39  37  CALM    30.27S
#WALLOWA SCHOOL N/A         80  35  20  CALM    30.12F



$$



USA.gov is the U.S. government's official web portal to all federal, state and local government web resources and services.